| time (UTC) | temp F | wind direction | speed MPH | gust MPH | rain 1hr in | rain 24hr in | rain mn in | humidity % | barometer mb |
| 20260906185901 | 80 | 0 | 0.0 | 0.0 | 0.00 | 0.01 | 0.00 | 82 | 990.2 |
| 20260906184400 | 81 | 0 | 0.0 | 0.0 | 0.00 | 0.30 | 0.00 | 81 | 990.1 |
| 20260906182902 | 82 | 0 | 0.0 | 0.0 | 0.00 | 0.30 | 0.00 | 84 | 990.0 |
| 20260906182109 | 81 | 0 | 0.0 | 0.0 | 0.00 | 0.30 | 0.00 | 83 | 990.2 |
| 20260906175855 | 80 | 0 | 0.0 | 0.0 | 0.00 | 0.30 | 0.00 | 84 | 990.2 |
| 20260906174352 | 80 | 0 | 0.0 | 0.0 | 0.00 | 0.30 | 0.00 | 85 | 990.6 |
| 20260906172848 | 79 | 0 | 0.0 | 0.0 | 0.00 | 0.30 | 0.00 | 86 | 990.6 |
| 20260906171348 | 78 | 0 | 0.0 | 0.0 | 0.00 | 0.30 | 0.00 | 88 | 990.7 |
| 20260906165846 | 78 | 0 | 0.0 | 0.0 | 0.00 | 0.30 | 0.00 | 88 | 990.6 |
| 20260906165728 | 78 | 0 | 0.0 | 0.0 | 0.00 | 0.30 | 0.00 | 89 | 990.7 |
| 20260906162845 | 78 | 0 | 0.0 | 0.0 | 0.00 | 0.30 | 0.00 | 88 | 990.6 |
| 20260906161344 | 78 | 0 | 0.0 | 0.0 | 0.00 | 0.30 | 0.00 | 90 | 990.7 |
| 20260906155844 | 78 | 0 | 0.0 | 0.0 | 0.00 | 0.30 | 0.00 | 87 | 990.7 |
| 20260906154342 | 77 | 0 | 0.0 | 0.0 | 0.00 | 0.30 | 0.00 | 91 | 990.9 |
| 20260906152840 | 77 | 0 | 0.0 | 0.0 | 0.00 | 0.30 | 0.00 | 89 | 991.2 |
| 20260906151336 | 77 | 0 | 0.0 | 0.0 | 0.00 | 0.30 | 0.00 | 88 | 991.1 |
| 20260906145836 | 77 | 0 | 0.0 | 0.0 | 0.00 | 0.30 | 0.00 | 90 | 991.1 |
| 20260906144335 | 77 | 0 | 0.0 | 0.0 | 0.00 | 0.30 | 0.00 | 91 | 991.0 |
| 20260906142833 | 76 | 0 | 0.0 | 0.0 | 0.00 | 0.30 | 0.00 | 92 | 990.7 |
| 20260906141332 | 75 | 0 | 0.0 | 0.0 | 0.00 | 0.30 | 0.00 | 94 | 990.7 |
| 20260906135831 | 75 | 0 | 0.0 | 0.0 | 0.00 | 0.30 | 0.00 | 94 | 990.7 |
| 20260906134330 | 74 | 0 | 0.0 | 0.0 | 0.00 | 0.30 | 0.00 | 95 | 990.4 |
| 20260906132830 | 74 | 0 | 0.0 | 0.0 | 0.00 | 0.30 | 0.00 | 95 | 990.3 |
| 20260906132018 | 73 | 0 | 0.0 | 0.0 | 0.00 | 0.30 | 0.00 | 95 | 990.3 |
| 20260906125825 | 73 | 0 | 0.0 | 0.0 | 0.00 | 0.30 | 0.00 | 95 | 990.4 |
| 20260906124332 | 72 | 0 | 0.0 | 0.0 | 0.00 | 0.30 | 0.00 | 95 | 990.3 |
| 20260906122825 | 72 | 0 | 0.0 | 0.0 | 0.00 | 0.30 | 0.00 | 95 | 990.0 |
| 20260906121325 | 72 | 0 | 0.0 | 0.0 | 0.00 | 0.30 | 0.00 | 95 | 990.1 |
| 20260906115824 | 72 | 0 | 0.0 | 0.0 | 0.00 | 0.30 | 0.00 | 95 | 989.9 |
| 20260906114322 | 71 | 0 | 0.0 | 0.0 | 0.00 | 0.30 | 0.00 | 95 | 989.9 |
| 20260906112819 | 71 | 0 | 0.0 | 0.0 | 0.00 | 0.30 | 0.00 | 95 | 989.9 |
| 20260906111317 | 71 | 0 | 0.0 | 0.0 | 0.00 | 0.30 | 0.00 | 95 | 989.8 |
| 20260906105816 | 71 | 0 | 0.0 | 0.0 | 0.00 | 0.30 | 0.00 | 95 | 989.5 |
| 20260906104315 | 71 | 0 | 0.0 | 0.0 | 0.00 | 0.30 | 0.00 | 95 | 989.3 |
| 20260906102813 | 71 | 0 | 0.0 | 0.0 | 0.00 | 0.30 | 0.00 | 95 | 989.2 |
| 20260906101311 | 71 | 0 | 0.0 | 0.0 | 0.00 | 0.30 | 0.00 | 95 | 989.2 |
| 20260906095809 | 71 | 0 | 0.0 | 0.0 | 0.00 | 0.30 | 0.00 | 95 | 988.9 |
| 20260906095002 | 71 | 0 | 0.0 | 0.0 | 0.00 | 0.30 | 0.00 | 95 | 988.7 |
| 20260906092809 | 71 | 0 | 0.0 | 0.0 | 0.00 | 0.30 | 0.00 | 95 | 988.5 |
| 20260906091309 | 71 | 0 | 0.0 | 0.0 | 0.00 | 0.30 | 0.00 | 95 | 988.2 |
| 20260906085807 | 71 | 0 | 0.0 | 0.0 | 0.00 | 0.30 | 0.00 | 95 | 988.0 |
| 20260906084303 | 71 | 0 | 0.0 | 0.0 | 0.00 | 0.30 | 0.00 | 95 | 988.1 |
| 20260906084209 | 72 | 0 | 0.0 | 0.0 | 0.00 | 0.30 | 0.00 | 95 | 988.1 |
| 20260906081303 | 72 | 0 | 0.0 | 0.0 | 0.00 | 0.30 | 0.00 | 95 | 988.2 |
| 20260906080509 | 72 | 0 | 0.0 | 0.0 | 0.00 | 0.30 | 0.00 | 95 | 988.1 |
| 20260906074301 | 72 | 0 | 0.0 | 0.0 | 0.00 | 0.30 | 0.00 | 95 | 987.8 |
| 20260906072801 | 72 | 0 | 0.0 | 0.0 | 0.00 | 0.30 | 0.00 | 95 | 987.9 |
| 20260906072005 | 72 | 0 | 0.0 | 0.0 | 0.00 | 0.30 | 0.00 | 95 | 987.8 |
| 20260906065804 | 72 | 0 | 0.0 | 0.0 | 0.00 | 0.30 | 0.00 | 95 | 987.9 |
| 20260906064305 | 73 | 0 | 0.0 | 0.0 | 0.00 | 0.30 | 0.00 | 95 | 988.0 |
| 20260906062756 | 73 | 0 | 0.0 | 0.0 | 0.00 | 0.30 | 0.00 | 95 | 988.0 |
| 20260906061254 | 73 | 0 | 0.0 | 0.0 | 0.00 | 0.30 | 0.00 | 95 | 988.0 |
| 20260906055753 | 73 | 0 | 0.0 | 0.0 | 0.00 | 0.30 | 0.00 | 95 | 988.0 |
| 20260906054253 | 73 | 0 | 0.0 | 0.0 | 0.00 | 0.30 | 0.00 | 95 | 988.2 |
| 20260906053443 | 73 | 0 | 0.0 | 0.0 | 0.00 | 0.30 | 0.00 | 95 | 988.4 |
| 20260906051250 | 74 | 0 | 0.0 | 0.0 | 0.00 | 0.30 | 0.00 | 95 | 988.6 |
| 20260906045751 | 74 | 0 | 0.0 | 0.0 | 0.00 | 0.30 | 0.00 | 95 | 988.4 |
| 20260906044250 | 74 | 0 | 0.0 | 0.0 | 0.00 | 0.30 | 0.00 | 95 | 988.5 |
| 20260906042749 | 74 | 0 | 0.0 | 0.0 | 0.00 | 0.30 | 0.00 | 95 | 988.6 |
| 20260906041250 | 74 | 0 | 0.0 | 0.0 | 0.00 | 0.30 | 0.00 | 95 | 988.6 |
| 20260906035746 | 74 | 0 | 0.0 | 0.0 | 0.00 | 0.30 | 0.30 | 95 | 988.7 |
| 20260906034245 | 75 | 0 | 0.0 | 0.0 | 0.00 | 0.30 | 0.30 | 95 | 988.6 |
| 20260906033436 | 75 | 0 | 0.0 | 0.0 | 0.00 | 0.30 | 0.30 | 95 | 988.7 |
| 20260906031949 | 75 | 0 | 0.0 | 0.0 | 0.00 | 0.30 | 0.30 | 95 | 988.7 |
| 20260906030441 | 75 | 0 | 0.0 | 0.0 | 0.00 | 0.30 | 0.30 | 95 | 988.9 |
| 20260906024239 | 76 | 0 | 0.0 | 0.0 | 0.00 | 0.30 | 0.30 | 95 | 988.9 |
| 20260906022739 | 76 | 0 | 0.0 | 0.0 | 0.00 | 0.30 | 0.30 | 95 | 988.7 |
| 20260906021236 | 76 | 0 | 0.0 | 0.0 | 0.00 | 0.30 | 0.30 | 95 | 988.5 |
| 20260906015734 | 76 | 0 | 0.0 | 0.0 | 0.00 | 0.30 | 0.30 | 95 | 988.4 |
| 20260906014232 | 76 | 0 | 0.0 | 0.0 | 0.00 | 0.30 | 0.30 | 95 | 988.6 |
| 20260906013415 | 76 | 0 | 0.0 | 0.0 | 0.00 | 0.30 | 0.30 | 95 | 988.5 |
| 20260906011926 | 76 | 0 | 0.0 | 0.0 | 0.00 | 0.30 | 0.30 | 95 | 988.5 |
| 20260906005723 | 76 | 0 | 0.0 | 0.0 | 0.00 | 0.30 | 0.30 | 95 | 988.4 |
| 20260906004220 | 76 | 0 | 0.0 | 0.0 | 0.00 | 0.30 | 0.30 | 95 | 988.1 |
| 20260906002719 | 77 | 0 | 0.0 | 0.0 | 0.00 | 0.30 | 0.30 | 95 | 987.9 |
| 20260906001914 | 77 | 0 | 0.0 | 0.0 | 0.00 | 0.30 | 0.30 | 95 | 987.6 |
| 20260905235717 | 77 | 0 | 0.0 | 0.0 | 0.00 | 0.30 | 0.30 | 95 | 987.4 |
| 20260905234928 | 78 | 0 | 0.0 | 0.0 | 0.00 | 0.30 | 0.30 | 95 | 987.3 |
| 20260905233417 | 78 | 0 | 0.0 | 0.0 | 0.00 | 0.30 | 0.30 | 95 | 987.1 |
| 20260905231215 | 78 | 0 | 0.0 | 0.0 | 0.00 | 0.30 | 0.30 | 95 | 987.0 |
| 20260905225713 | 78 | 0 | 0.0 | 0.0 | 0.00 | 0.30 | 0.30 | 95 | 986.7 |
| 20260905224213 | 77 | 0 | 0.0 | 0.0 | 0.00 | 0.30 | 0.30 | 95 | 986.7 |
| 20260905222711 | 77 | 0 | 0.0 | 0.0 | 0.00 | 0.30 | 0.30 | 95 | 986.9 |
| 20260905221211 | 77 | 0 | 0.0 | 0.0 | 0.00 | 0.30 | 0.30 | 95 | 986.9 |
| 20260905215711 | 77 | 0 | 0.0 | 0.0 | 0.00 | 0.30 | 0.30 | 95 | 986.8 |
| 20260905214211 | 77 | 0 | 0.0 | 0.0 | 0.00 | 0.30 | 0.30 | 95 | 986.8 |
| 20260905212711 | 76 | 0 | 0.0 | 0.0 | 0.00 | 0.30 | 0.30 | 95 | 986.4 |
| 20260905212548 | 76 | 0 | 0.0 | 0.0 | 0.00 | 0.30 | 0.30 | 95 | 986.4 |
| 20260905205711 | 76 | 0 | 0.0 | 0.0 | 0.00 | 0.30 | 0.30 | 95 | 986.5 |
| 20260905204211 | 76 | 0 | 0.0 | 0.0 | 0.00 | 0.30 | 0.30 | 95 | 986.6 |
| 20260905202709 | 76 | 0 | 0.0 | 0.0 | 0.00 | 0.30 | 0.30 | 95 | 986.3 |
| 20260905201207 | 76 | 0 | 0.0 | 0.0 | 0.01 | 0.30 | 0.30 | 95 | 986.4 |
| 20260905200404 | 75 | 0 | 0.0 | 0.0 | 0.01 | 0.30 | 0.30 | 95 | 987.4 |
| 20260905194207 | 77 | 0 | 0.0 | 0.0 | 0.30 | 0.30 | 0.30 | 95 | 987.2 |
| 20260905192705 | 77 | 0 | 0.0 | 0.0 | 0.30 | 0.30 | 0.30 | 94 | 987.8 |
| 20260905191204 | 78 | 0 | 0.0 | 0.0 | 0.29 | 0.29 | 0.29 | 93 | 987.2 |